Time[GMT],significant_wave_height[m](0m),dominant_wave_period[s](0m)
2004-11-10 19:00, 0.51,5.3
2004-11-10 20:00, 0.49,5.3
2004-11-10 21:00, 0.49,4.6
2004-11-10 22:00, 0.47,4.6
2004-11-10 23:00, 0.56,2.9
2004-11-11 00:00, 0.69,3.2
2004-11-11 01:00, 0.93,3.6
2004-11-11 02:00, 1.08,4.0
2004-11-11 03:00, 1.22,4.0
2004-11-11 04:00, 1.11,4.6
2004-11-11 05:00, 1.24,4.0
2004-11-11 06:00, 1.13,4.0
2004-11-11 07:00, 1.17,4.0
2004-11-11 08:00, 1.24,4.0
2004-11-11 09:00, 1.15,4.0
2004-11-11 10:00, 1.25,4.0
2004-11-11 11:00, 1.41,4.6
2004-11-11 12:00, 1.36,4.6
2004-11-11 13:00, 1.38,4.6
2004-11-11 14:00, 1.39,4.6
2004-11-11 15:00, 1.46,4.6
2004-11-11 16:00, 1.36,4.6
2004-11-11 17:00, 1.07,4.6
2004-11-11 18:00, 0.84,4.0
2004-11-11 19:00, 0.81,4.0
2004-11-11 20:00, 0.78,3.6
2004-11-11 21:00, 0.84,4.0
2004-11-11 22:00, 0.82,4.0
2004-11-11 23:00, 0.82,4.6
2004-11-12 00:00, 0.77,5.3
2004-11-12 01:00, 0.71,5.3
2004-11-12 02:00, 0.66,4.0
2004-11-12 03:00, 0.56,4.6
2004-11-12 04:00, 0.63,3.6
2004-11-12 05:00, 0.71,3.6
2004-11-12 06:00, 0.89,3.6
2004-11-12 07:00, 1.28,4.6
2004-11-12 08:00, 1.57,5.3
2004-11-12 09:00, 1.44,6.4
2004-11-12 10:00, 1.47,5.3
2004-11-12 11:00, 1.46,5.3
2004-11-12 12:00, 1.42,5.3
2004-11-12 13:00, 1.68,6.4
2004-11-12 14:00, 1.50,6.4
2004-11-12 15:00, 1.47,6.4
2004-11-12 16:00, 1.60,5.3
2004-11-12 17:00, 1.63,6.4
2004-11-12 18:00, 1.59,6.4
2004-11-12 19:00, 2.11,6.4
2004-11-12 20:00, 1.83,6.4
2004-11-12 21:00, 1.61,6.4
2004-11-12 22:00, 1.82,6.4
2004-11-12 23:00, 1.64,6.4
2004-11-13 00:00, 1.76,6.4
2004-11-13 01:00, 1.68,6.4
2004-11-13 02:00, 1.76,6.4
2004-11-13 03:00, 1.73,6.4
2004-11-13 04:00, 1.55,4.6
2004-11-13 05:00, 1.71,6.4
2004-11-13 06:00, 1.93,5.3
2004-11-13 07:00, 2.08,6.4
2004-11-13 08:00, 1.81,5.3
2004-11-13 09:00, 2.18,6.4
2004-11-13 10:00, 2.24,6.4
2004-11-13 11:00, 2.24,6.4
2004-11-13 12:00, 2.49,8.0
2004-11-13 13:00, 2.48,6.4
2004-11-13 14:00, 2.58,6.4
2004-11-13 15:00, 2.61,6.4
2004-11-13 16:00, 2.85,8.0
2004-11-13 17:00, 2.66,8.0
2004-11-13 18:00, 2.76,8.0
2004-11-13 19:00, 3.00,8.0
2004-11-13 20:00, 3.24,8.0
2004-11-13 21:00, 3.17,8.0
2004-11-13 22:00, 4.61,10.7
2004-11-13 23:00, 3.65,10.7
2004-11-14 00:00, 3.47,8.0
2004-11-14 01:00, 4.68,10.7
2004-11-14 02:00, 4.29,10.7
2004-11-14 03:00, 3.94,10.7
2004-11-14 04:00, 3.85,10.7
2004-11-14 05:00, 4.29,10.7
2004-11-14 06:00, 4.08,10.7
2004-11-14 07:00, 3.19,10.7
2004-11-14 08:00, 3.41,10.7
2004-11-14 09:00, 3.07,10.7
2004-11-14 10:00, 3.33,10.7
2004-11-14 11:00, 2.70,8.0
2004-11-14 12:00, 2.82,8.0
2004-11-14 13:00, 2.81,8.0
2004-11-14 14:00, 2.31,10.7
2004-11-14 15:00, 2.31,8.0
2004-11-14 16:00, 2.08,8.0
2004-11-14 17:00, 2.31,10.7
2004-11-14 18:00, 2.17,10.7
2004-11-14 19:00, 2.22,10.7
2004-11-14 20:00, 1.91,10.7
2004-11-14 21:00, 1.94,10.7
2004-11-14 22:00, 1.66,10.7
2004-11-14 23:00, 1.82,10.7
2004-11-15 00:00, 2.19,10.7
2004-11-15 01:00, 0.52,3.2
2004-11-15 02:00, 1.75,8.0
2004-11-15 03:00, 1.82,10.7
2004-11-15 04:00, 1.52,10.7
2004-11-15 05:00, 0.54,3.2
2004-11-15 06:00, 0.61,2.9
2004-11-15 07:00, 1.51,10.7
2004-11-15 08:00, 0.55,3.6
2004-11-15 09:00, 0.53,2.7
2004-11-15 10:00, 1.73,10.7
2004-11-15 11:00, 0.62,4.0
2004-11-15 12:00, 1.56,10.7
2004-11-15 13:00, 1.65,10.7
2004-11-15 14:00, 1.41,8.0
2004-11-15 15:00, 1.49,8.0
2004-11-15 16:00, 1.56,8.0
2004-11-15 17:00, 1.52,8.0
2004-11-15 18:00, 1.75,8.0
2004-11-15 19:00, 1.59,8.0
2004-11-15 20:00, 1.56,8.0
2004-11-15 21:00, 1.61,8.0
2004-11-15 22:00, 1.80,10.7
2004-11-15 23:00, 1.90,10.7
2004-11-16 00:00, 1.77,8.0
2004-11-16 01:00, 1.49,10.7
2004-11-16 02:00, 1.37,10.7
2004-11-16 03:00, 1.50,10.7
2004-11-16 04:00, 1.58,8.0
2004-11-16 05:00, 1.30,8.0
2004-11-16 06:00, 1.33,8.0
2004-11-16 07:00, 1.30,10.7
2004-11-16 08:00, 1.41,8.0
2004-11-16 09:00, 1.30,10.7
2004-11-16 10:00, 1.40,10.7
2004-11-16 11:00, 1.31,10.7
2004-11-16 12:00, 1.45,10.7
2004-11-16 13:00, 1.40,10.7
2004-11-16 14:00, 1.42,8.0
2004-11-16 15:00, 1.12,10.7
2004-11-16 16:00, 0.58,4.6
2004-11-16 17:00, 1.38,10.7
2004-11-16 18:00, 1.20,8.0
2004-11-16 19:00, 1.11,6.4
2004-11-16 20:00, 1.41,10.7
2004-11-16 21:00, 1.18,10.7
2004-11-16 22:00, 1.32,10.7
2004-11-16 23:00, 1.28,10.7
2004-11-17 00:00, 1.41,10.7
2004-11-17 01:00, 1.33,10.7
2004-11-17 02:00, 1.49,8.0
2004-11-17 03:00, 1.39,8.0
2004-11-17 04:00, 1.27,8.0
2004-11-17 05:00, 1.22,8.0
2004-11-17 06:00, 1.20,8.0
2004-11-17 07:00, 1.01,8.0
2004-11-17 08:00, 1.11,6.4
2004-11-17 09:00, 0.98,6.4
2004-11-17 10:00, 1.02,10.7
2004-11-17 11:00, 1.02,10.7
2004-11-17 12:00, 1.12,10.7
2004-11-17 13:00, 1.09,10.7
2004-11-17 14:00, 1.04,8.0
2004-11-17 15:00, 1.25,8.0
2004-11-17 16:00, 1.18,10.7
2004-11-17 17:00, 1.08,8.0
2004-11-17 18:00, 1.06,8.0
2004-11-17 19:00, 0.94,6.4
2004-11-17 20:00, 1.09,8.0
2004-11-17 21:00, 1.05,6.4
2004-11-17 22:00, 1.00,10.7
2004-11-17 23:00, 1.04,10.7
2004-11-18 00:00, 1.06,10.7
2004-11-18 01:00, 1.19,10.7
2004-11-18 02:00, 1.10,10.7
2004-11-18 03:00, 1.00,10.7
2004-11-18 04:00, 0.88,8.0
2004-11-18 05:00, 0.84,10.7
2004-11-18 06:00, 0.84,10.7
2004-11-18 07:00, 0.83,8.0
2004-11-18 08:00, 0.77,10.7
2004-11-18 09:00, 0.62,10.7
2004-11-18 10:00, 0.70,10.7
2004-11-18 11:00, 0.60,8.0
2004-11-18 12:00, 0.70,10.7
2004-11-18 13:00, 0.62,10.7
2004-11-18 14:00, 0.74,10.7
2004-11-18 15:00, 0.66,10.7
2004-11-18 16:00, 0.57,8.0
2004-11-18 17:00, 0.67,8.0
2004-11-18 18:00, 0.60,8.0
2004-11-18 19:00, 0.59,6.4
2004-11-18 20:00, 0.64,8.0
2004-11-18 21:00, 0.59,8.0
2004-11-18 22:00, 0.50,6.4
2004-11-18 23:00, 0.48,8.0
2004-11-19 00:00, 0.43,5.3
2004-11-19 01:00, 0.44,10.7
2004-11-19 02:00, 0.37,8.0
2004-11-19 03:00, 0.50,10.7
2004-11-19 04:00, 0.40,8.0
2004-11-19 05:00, 0.48,8.0
2004-11-19 06:00, 0.51,8.0
2004-11-19 07:00, 0.52,8.0
2004-11-19 08:00, 0.52,8.0
2004-11-19 09:00, 0.48,8.0
2004-11-19 10:00, 0.50,8.0
2004-11-19 11:00, 0.37,8.0
2004-11-19 12:00, 0.45,10.7
2004-11-19 13:00, 0.40,10.7
2004-11-19 14:00, 0.40,8.0
2004-11-19 15:00, 0.47,8.0
2004-11-19 16:00, 0.56,8.0
2004-11-19 17:00, 0.50,8.0
2004-11-19 18:00, 0.54,8.0
2004-11-19 19:00, 0.59,8.0
2004-11-19 20:00, 0.41,2.7
2004-11-19 21:00, 0.44,8.0
2004-11-19 22:00, 0.38,8.0
2004-11-19 23:00, 0.46,8.0
2004-11-20 00:00, 0.35,2.3
2004-11-20 01:00, 0.31,2.9
2004-11-20 02:00, 0.51,8.0
2004-11-20 03:00, 0.32,3.2
2004-11-20 04:00, 0.43,8.0
2004-11-20 05:00, 0.60,4.0
2004-11-20 06:00, 0.68,8.0
2004-11-20 07:00, 0.62,8.0
2004-11-20 08:00, 0.57,8.0
2004-11-20 09:00, 0.57,8.0
2004-11-20 10:00, 0.61,5.3
2004-11-20 11:00, 0.53,4.6
2004-11-20 12:00, 0.52,4.6
2004-11-20 13:00, 0.48,4.6
2004-11-20 14:00, 0.53,4.6
2004-11-20 15:00, 0.48,4.6
2004-11-20 16:00, 0.57,4.0
2004-11-20 17:00, 0.65,4.0
2004-11-20 18:00, 0.63,4.6
2004-11-20 19:00, 0.57,4.6
2004-11-20 20:00, 0.64,4.6
2004-11-20 21:00, 0.64,4.6
2004-11-20 22:00, 0.59,5.3
2004-11-20 23:00, 0.57,5.3
2004-11-21 00:00, 0.53,4.6
2004-11-21 01:00, 0.49,5.3
2004-11-21 02:00, 0.43,4.6
2004-11-21 03:00, 0.37,4.0
2004-11-21 04:00, 0.41,4.6
2004-11-21 05:00, 0.42,4.6
2004-11-21 06:00, 0.45,2.7
2004-11-21 07:00, 0.44,2.7
2004-11-21 08:00, 0.43,2.9
2004-11-21 09:00, 0.39,2.9
2004-11-21 10:00, 0.44,2.9
2004-11-21 11:00, 0.47,2.9
2004-11-21 12:00, 0.40,2.9
2004-11-21 13:00, 0.42,3.2
2004-11-21 14:00, 0.42,3.2
2004-11-21 15:00, 0.39,3.2
2004-11-21 16:00, 0.49,10.7
2004-11-21 17:00, 0.52,10.7
2004-11-21 18:00, 0.52,10.7
2004-11-21 19:00, 0.34,5.3
2004-11-21 20:00, 0.37,4.6
2004-11-21 21:00, 0.48,10.7
2004-11-21 22:00, 0.35,5.3
2004-11-21 23:00, 0.38,3.6
2004-11-22 00:00, 0.34,3.6
2004-11-22 01:00, 0.35,2.3
2004-11-22 02:00, 0.31,2.1
2004-11-22 03:00, 0.29,3.6
2004-11-22 04:00, 0.28,2.0
2004-11-22 05:00, 0.41,10.7
2004-11-22 06:00, 0.27,4.0
2004-11-22 07:00, 0.25,2.3
2004-11-22 08:00, 0.27,2.0
2004-11-22 09:00, 0.32,2.5
2004-11-22 10:00, 0.24,2.5
2004-11-22 11:00, 0.29,2.5
2004-11-22 12:00, 0.24,2.5
2004-11-22 13:00, 0.35,2.5
2004-11-22 14:00, 0.35,2.7
2004-11-22 15:00, 0.37,2.9
2004-11-22 16:00, 0.34,2.5
2004-11-22 17:00, 0.43,2.7
2004-11-22 18:00, 0.42,2.7
2004-11-22 19:00, 0.30,2.7
2004-11-22 20:00, 0.27,3.2
2004-11-22 21:00, 0.20,2.7
2004-11-22 22:00, 0.16,2.1
2004-11-22 23:00, 0.13,2.3
2004-11-23 00:00, 0.33,8.0
2004-11-23 01:00, 0.33,8.0
2004-11-23 02:00, 0.33,10.7
2004-11-23 03:00, 0.34,10.7
2004-11-23 04:00, 0.36,10.7
2004-11-23 05:00, 0.35,10.7
2004-11-23 06:00, 0.29,8.0
2004-11-23 07:00, 0.33,8.0
2004-11-23 08:00, 0.37,8.0
2004-11-23 09:00, 0.38,8.0
2004-11-23 10:00, 0.43,8.0
2004-11-23 11:00, 0.40,10.7
2004-11-23 12:00, 0.46,8.0
2004-11-23 13:00, 0.43,8.0
2004-11-23 14:00, 0.40,10.7
2004-11-23 15:00, 0.33,10.7
2004-11-23 16:00, 0.39,10.7
2004-11-23 17:00, 0.36,10.7
2004-11-23 18:00, 0.38,8.0
2004-11-23 19:00, 0.14,2.7
2004-11-23 20:00, 0.36,8.0
2004-11-23 21:00, 0.49,6.4
2004-11-23 22:00, 0.57,3.2
2004-11-23 23:00, 0.90,4.0
2004-11-24 00:00, 0.92,4.0
2004-11-24 01:00, 0.88,4.6
2004-11-24 02:00, 0.82,4.6
2004-11-24 03:00, 0.84,4.6
2004-11-24 04:00, 0.85,4.6
2004-11-24 05:00, 0.86,4.6
2004-11-24 06:00, 0.79,4.0
2004-11-24 07:00, 0.91,4.6
2004-11-24 08:00, 0.78,4.6
2004-11-24 09:00, 0.80,4.0
2004-11-24 10:00, 0.67,4.0
2004-11-24 11:00, 0.71,4.0
2004-11-24 12:00, 0.73,4.0
2004-11-24 13:00, 0.62,4.6
2004-11-24 14:00, 0.72,4.6
2004-11-24 15:00, 0.70,4.6
2004-11-24 16:00, 0.73,4.6
2004-11-24 17:00, 0.75,5.3
2004-11-24 18:00, 0.79,5.3
2004-11-24 19:00, 0.81,5.3
2004-11-24 20:00, 0.84,5.3
2004-11-24 21:00, 1.05,5.3
2004-11-24 22:00, 1.21,4.6
2004-11-24 23:00, 1.76,5.3
2004-11-25 00:00, 1.96,6.4
2004-11-25 01:00, 1.97,6.4
2004-11-25 02:00, 2.34,6.4
2004-11-25 03:00, 2.32,8.0
2004-11-25 04:00, 2.25,8.0
2004-11-25 05:00, 2.41,8.0
2004-11-25 06:00, 2.24,8.0
2004-11-25 07:00, 1.96,8.0
2004-11-25 08:00, 1.75,8.0
2004-11-25 09:00, 2.00,8.0
2004-11-25 10:00, 1.86,8.0
2004-11-25 11:00, 2.08,8.0
2004-11-25 12:00, 1.86,8.0
2004-11-25 13:00, 1.88,8.0
2004-11-25 14:00, 1.94,8.0
2004-11-25 15:00, 1.68,8.0
2004-11-25 16:00, 1.42,8.0
2004-11-25 17:00, 1.54,8.0
2004-11-25 18:00, 1.66,8.0
2004-11-25 19:00, 1.70,8.0
2004-11-25 20:00, 1.47,8.0
2004-11-25 21:00, 1.40,8.0
2004-11-25 22:00, 1.61,8.0
2004-11-25 23:00, 1.50,8.0
2004-11-26 00:00, 1.85,8.0
2004-11-26 01:00, 1.54,8.0
2004-11-26 02:00, 1.56,8.0
2004-11-26 03:00, 1.18,4.6
2004-11-26 04:00, 1.29,4.0
2004-11-26 05:00, 1.51,10.7
2004-11-26 06:00, 1.15,4.0
2004-11-26 07:00, 1.72,10.7
2004-11-26 08:00, 1.23,4.6
2004-11-26 09:00, 1.02,4.0
2004-11-26 10:00, 0.99,4.0
2004-11-26 11:00, 1.36,10.7
2004-11-26 12:00, 0.71,4.0
2004-11-26 13:00, 0.68,3.6
2004-11-26 14:00, 0.63,3.6
2004-11-26 15:00, 0.68,3.6
2004-11-26 16:00, 0.59,3.6
2004-11-26 17:00, 0.58,3.2
2004-11-26 18:00, 1.14,10.7
2004-11-26 19:00, 0.83,3.6
2004-11-26 20:00, 0.79,3.6
2004-11-26 21:00, 0.78,4.0
2004-11-26 22:00, 0.82,3.6
2004-11-26 23:00, 0.87,4.0
2004-11-27 00:00, 0.59,3.2
2004-11-27 01:00, 0.54,3.2
2004-11-27 02:00, 0.62,3.6
2004-11-27 03:00, 0.66,3.6
2004-11-27 04:00, 0.63,3.2
2004-11-27 05:00, 0.61,3.6
2004-11-27 06:00, 0.60,3.2
2004-11-27 07:00, 0.51,3.2
2004-11-27 08:00, 0.45,3.2
2004-11-27 09:00, 0.76,10.7
2004-11-27 10:00, 0.64,10.7
2004-11-27 11:00, 0.62,10.7
2004-11-27 12:00, 0.48,10.7
2004-11-27 13:00, 0.48,10.7
2004-11-27 14:00, 0.48,10.7
2004-11-27 15:00, 0.51,10.7
2004-11-27 16:00, 0.55,10.7
2004-11-27 17:00, 0.55,10.7
2004-11-27 18:00, 0.29,2.3
2004-11-27 19:00, 0.45,2.9
2004-11-27 20:00, 0.54,3.2
2004-11-27 21:00, 0.80,3.6
2004-11-27 22:00, 0.96,4.0
2004-11-27 23:00, 1.09,4.6
2004-11-28 00:00, 0.98,4.6
2004-11-28 01:00, 1.16,4.6
2004-11-28 02:00, 1.38,4.6
2004-11-28 03:00, 1.46,4.6
2004-11-28 04:00, 1.65,5.3
2004-11-28 05:00, 2.11,5.3
2004-11-28 06:00, 2.03,5.3
2004-11-28 07:00, 1.88,6.4
2004-11-28 08:00, 1.94,6.4
2004-11-28 09:00, 2.01,5.3
2004-11-28 10:00, 2.23,6.4
2004-11-28 11:00, 2.29,6.4
2004-11-28 12:00, 2.37,6.4
2004-11-28 13:00, 2.28,6.4
2004-11-28 14:00, 2.73,8.0
2004-11-28 15:00, 2.90,8.0
2004-11-28 16:00, 2.98,8.0
2004-11-28 17:00, 3.57,8.0
2004-11-28 18:00, 3.64,8.0
2004-11-28 19:00, 3.58,10.7
2004-11-28 20:00, 3.89,8.0
2004-11-28 21:00, 3.80,8.0
2004-11-28 22:00, 3.89,8.0
2004-11-28 23:00, 3.72,10.7
2004-11-29 00:00, 3.41,8.0
2004-11-29 01:00, 3.78,10.7
2004-11-29 02:00, 3.89,10.7
2004-11-29 03:00, 3.50,10.7
2004-11-29 04:00, 3.06,10.7
2004-11-29 05:00, 3.17,10.7
2004-11-29 06:00, 3.25,10.7
2004-11-29 07:00, 2.60,10.7
2004-11-29 08:00, 2.51,10.7
2004-11-29 09:00, 2.51,10.7
2004-11-29 10:00, 2.66,10.7
2004-11-29 11:00, 2.16,10.7
2004-11-29 12:00, 2.08,10.7
2004-11-29 13:00, 1.65,10.7
2004-11-29 14:00, 1.99,10.7
2004-11-29 15:00, 1.70,10.7
2004-11-29 16:00, 1.71,10.7
2004-11-29 17:00, 1.78,10.7
2004-11-29 18:00, 1.85,10.7
2004-11-29 19:00, 1.82,10.7
2004-11-29 20:00, 1.56,10.7
2004-11-29 21:00, 1.59,10.7
2004-11-29 22:00, 1.85,10.7
2004-11-29 23:00, 1.48,10.7
2004-11-30 00:00, 1.68,10.7
2004-11-30 01:00, 1.97,10.7
2004-11-30 02:00, 1.55,10.7
2004-11-30 03:00, 1.42,10.7
2004-11-30 04:00, 2.23,10.7
2004-11-30 05:00, 1.76,10.7
2004-11-30 06:00, 1.66,10.7
2004-11-30 07:00, 2.02,10.7
2004-11-30 08:00, 1.65,10.7
2004-11-30 09:00, 1.76,10.7
2004-11-30 10:00, 1.73,10.7
2004-11-30 11:00, 1.49,10.7
2004-11-30 12:00, 1.62,10.7
2004-11-30 13:00, 1.50,10.7
2004-11-30 14:00, 1.39,10.7
2004-11-30 15:00, 1.41,10.7
2004-11-30 16:00, 1.66,10.7
2004-11-30 17:00, 1.41,10.7
2004-11-30 18:00, 1.75,10.7
2004-11-30 19:00, 1.49,10.7
2004-11-30 20:00, 1.49,10.7
2004-11-30 21:00, 1.69,10.7
2004-11-30 22:00, 1.31,10.7
2004-11-30 23:00, 1.34,10.7
2004-12-01 00:00, 1.61,10.7
2004-12-01 01:00, 1.70,10.7
2004-12-01 02:00, 1.70,10.7
2004-12-01 03:00, 1.59,10.7
2004-12-01 04:00, 1.65,10.7
2004-12-01 05:00, 1.60,10.7
2004-12-01 06:00, 2.12,10.7
2004-12-01 07:00, 1.62,10.7
2004-12-01 08:00, 1.94,10.7
2004-12-01 09:00, 1.65,10.7
2004-12-01 10:00, 1.97,10.7
2004-12-01 11:00, 1.85,10.7
2004-12-01 12:00, 2.22,10.7
2004-12-01 13:00, 2.15,10.7
2004-12-01 14:00, 2.34,10.7
2004-12-01 15:00, 2.48,5.3
2004-12-01 16:00, 2.10,6.4
2004-12-01 17:00, 2.50,6.4
2004-12-01 18:00, 3.46,6.4
2004-12-01 19:00, 2.95,6.4
2004-12-01 20:00, 3.02,8.0
2004-12-01 21:00, 2.77,8.0
2004-12-01 22:00, 2.81,8.0
2004-12-01 23:00, 2.34,10.7
2004-12-02 00:00, 1.53,4.6
2004-12-02 01:00, 2.53,5.3
2004-12-02 02:00, 1.84,5.3
2004-12-02 03:00, 1.44,4.6
2004-12-02 04:00, 1.30,5.3
2004-12-02 05:00, 1.11,4.6
2004-12-02 06:00, 0.99,4.6
2004-12-02 07:00, 0.85,4.0
2004-12-02 08:00, 1.08,4.0
2004-12-02 09:00, 0.89,4.6
2004-12-02 10:00, 0.83,4.0
2004-12-02 11:00, 0.88,4.0
2004-12-02 12:00, 0.95,4.0
2004-12-02 13:00, 0.89,4.0
2004-12-02 14:00, 1.11,4.0
2004-12-02 15:00, 1.45,4.6
2004-12-02 16:00, 1.16,4.6
2004-12-02 17:00, 0.92,4.0
2004-12-02 18:00, 0.82,4.0
2004-12-02 19:00, 0.75,4.0
2004-12-02 20:00, 0.84,4.0
2004-12-02 21:00, 0.76,3.6
2004-12-02 22:00, 0.63,3.6
2004-12-02 23:00, 0.59,3.2
2004-12-03 00:00, 0.56,3.6
2004-12-03 01:00, 0.48,3.2
2004-12-03 02:00, 0.35,2.9
2004-12-03 03:00, 0.55,10.7
2004-12-03 04:00, 0.48,10.7
2004-12-03 05:00, 0.49,10.7
2004-12-03 06:00, 0.49,10.7
2004-12-03 07:00, 0.41,10.7
2004-12-03 08:00, 0.45,10.7
2004-12-03 09:00, 0.48,10.7
2004-12-03 10:00, 0.40,10.7
2004-12-03 11:00, 0.49,10.7
2004-12-03 12:00, 0.26,2.3
2004-12-03 13:00, 0.30,2.1
2004-12-03 14:00, 0.34,2.5
2004-12-03 15:00, 0.39,2.9
2004-12-03 16:00, 0.50,8.0
2004-12-03 17:00, 0.41,2.5
2004-12-03 18:00, 0.38,2.7
2004-12-03 19:00, 0.40,2.9
2004-12-03 20:00, 0.76,2.9
2004-12-03 21:00, 0.89,4.6
2004-12-03 22:00, 0.95,4.6
2004-12-03 23:00, 0.95,4.6
2004-12-04 00:00, 0.92,5.3
2004-12-04 01:00, 0.81,5.3
2004-12-04 02:00, 0.96,6.4
2004-12-04 03:00, 1.01,6.4
2004-12-04 04:00, 1.05,6.4
2004-12-04 05:00, 1.15,6.4
2004-12-04 06:00, 1.27,6.4
2004-12-04 07:00, 1.13,6.4
2004-12-04 08:00, 0.98,6.4
2004-12-04 09:00, 1.13,6.4
2004-12-04 10:00, 0.97,6.4
2004-12-04 11:00, 0.86,6.4
2004-12-04 12:00, 0.90,6.4
2004-12-04 13:00, 0.73,6.4
2004-12-04 14:00, 0.81,6.4
2004-12-04 15:00, 0.93,6.4
2004-12-04 16:00, 0.84,6.4
2004-12-04 17:00, 0.78,6.4
2004-12-04 18:00, 0.83,6.4
2004-12-04 19:00, 0.79,6.4
2004-12-04 20:00, 0.74,6.4
2004-12-04 21:00, 0.67,6.4
2004-12-04 22:00, 0.68,6.4
2004-12-04 23:00, 0.82,6.4
2004-12-05 00:00, 1.00,3.6
2004-12-05 01:00, 0.99,4.0
2004-12-05 02:00, 1.05,4.0
2004-12-05 03:00, 1.08,4.0
2004-12-05 04:00, 1.21,4.0
2004-12-05 05:00, 1.13,4.6
2004-12-05 06:00, 1.19,4.6
2004-12-05 07:00, 1.20,4.6
2004-12-05 08:00, 1.31,4.6
2004-12-05 09:00, 1.37,4.6
2004-12-05 10:00, 1.23,4.6
2004-12-05 11:00, 1.07,4.6
2004-12-05 12:00, 1.08,4.6
2004-12-05 13:00, 1.02,4.0
2004-12-05 14:00, 1.19,4.6
2004-12-05 15:00, 1.04,4.0
2004-12-05 16:00, 0.89,4.0
2004-12-05 17:00, 1.01,4.0
2004-12-05 18:00, 1.17,4.6
2004-12-05 19:00, 1.01,4.6
2004-12-05 20:00, 0.89,4.6
2004-12-05 21:00, 0.94,3.6
2004-12-05 22:00, 0.78,3.6
2004-12-05 23:00, 0.67,2.7
2004-12-06 00:00, 0.78,2.9
2004-12-06 01:00, 0.91,4.6
2004-12-06 02:00, 1.01,4.6
2004-12-06 03:00, 1.03,5.3
2004-12-06 04:00, 1.02,5.3
2004-12-06 05:00, 0.96,4.0
2004-12-06 06:00, 1.01,5.3
2004-12-06 07:00, 1.05,5.3
2004-12-06 08:00, 1.01,5.3
2004-12-06 09:00, 0.86,4.6
2004-12-06 10:00, 0.79,4.6
2004-12-06 11:00, 0.66,5.3
2004-12-06 12:00, 0.63,4.6
2004-12-06 13:00, 0.56,4.6
2004-12-06 14:00, 0.51,4.6
2004-12-06 15:00, 0.42,4.6
2004-12-06 16:00, 0.49,4.6
2004-12-06 17:00, 0.44,4.6
2004-12-06 18:00, 0.43,4.0
2004-12-06 19:00, 0.37,4.0
2004-12-06 20:00, 0.37,8.0
2004-12-06 21:00, 0.35,4.6
2004-12-06 22:00, 0.44,6.4
2004-12-06 23:00, 0.35,6.4
2004-12-07 00:00, 0.35,6.4
2004-12-07 01:00, 0.38,6.4
2004-12-07 02:00, 0.37,2.3
2004-12-07 03:00, 0.58,2.9
2004-12-07 04:00, 0.85,3.6
2004-12-07 05:00, 1.05,4.0
2004-12-07 06:00, 1.21,4.6
2004-12-07 07:00, 1.48,5.3
2004-12-07 08:00, 1.46,5.3
2004-12-07 09:00, 1.59,5.3
2004-12-07 10:00, 2.12,6.4
2004-12-07 11:00, 1.57,5.3
2004-12-07 12:00, 1.88,6.4
2004-12-07 13:00, 1.93,6.4
2004-12-07 14:00, 2.07,6.4
2004-12-07 15:00, 1.92,6.4
2004-12-07 16:00, 2.23,6.4
2004-12-07 17:00, 2.37,8.0
2004-12-07 18:00, 2.50,6.4
2004-12-07 19:00, 2.12,6.4
2004-12-07 20:00, 2.40,8.0
2004-12-07 21:00, 2.79,8.0
2004-12-07 22:00, 3.02,8.0
2004-12-07 23:00, 3.06,8.0
2004-12-08 00:00, 3.61,8.0
2004-12-08 01:00, 3.55,8.0
2004-12-08 02:00, 4.51,8.0
2004-12-08 03:00, 4.12,10.7
2004-12-08 04:00, 4.23,10.7
2004-12-08 05:00, 3.62,10.7
2004-12-08 06:00, 4.01,10.7
2004-12-08 07:00, 3.77,10.7
2004-12-08 08:00, 3.73,10.7
2004-12-08 09:00, 3.43,10.7
2004-12-08 10:00, 3.32,10.7
2004-12-08 11:00, 3.06,10.7
2004-12-08 12:00, 2.90,10.7
2004-12-08 13:00, 2.38,10.7
2004-12-08 14:00, 2.46,10.7
2004-12-08 15:00, 2.79,10.7
2004-12-08 16:00, 2.32,10.7
2004-12-08 17:00, 2.38,10.7
2004-12-08 18:00, 2.53,10.7
2004-12-08 19:00, 2.37,10.7
2004-12-08 20:00, 2.30,10.7
2004-12-08 21:00, 1.98,10.7
2004-12-08 22:00, 1.77,10.7
2004-12-08 23:00, 1.54,10.7
2004-12-09 00:00, 0.83,4.6
2004-12-09 01:00, 1.37,10.7
2004-12-09 02:00, 0.69,4.0
2004-12-09 03:00, 0.63,4.0
2004-12-09 04:00, 1.03,10.7
2004-12-09 05:00, 0.70,3.6
2004-12-09 06:00, 0.70,3.6
2004-12-09 07:00, 0.66,3.6
2004-12-09 08:00, 0.60,3.6
2004-12-09 09:00, 0.52,3.6
2004-12-09 10:00, 0.51,3.2
2004-12-09 11:00, 0.48,3.6
2004-12-09 12:00, 0.49,3.6
2004-12-09 13:00, 0.46,3.2
2004-12-09 14:00, 0.37,2.9
2004-12-09 15:00, 0.37,2.7
2004-12-09 16:00, 0.58,10.7
2004-12-09 17:00, 0.51,10.7
2004-12-09 18:00, 0.51,10.7
2004-12-09 19:00, 0.44,10.7
2004-12-09 20:00, 0.45,10.7
2004-12-09 21:00, 0.54,8.0
2004-12-09 22:00, 0.44,8.0
2004-12-09 23:00, 0.47,10.7
2004-12-10 00:00, 0.28,3.6
2004-12-10 01:00, 0.42,2.7
2004-12-10 02:00, 0.42,2.5
2004-12-10 03:00, 0.48,2.9
2004-12-10 04:00, 0.56,3.2
2004-12-10 05:00, 0.72,4.0
2004-12-10 06:00, 0.82,4.0
2004-12-10 07:00, 0.84,4.6
2004-12-10 08:00, 1.11,4.6
2004-12-10 09:00, 1.19,4.6
2004-12-10 10:00, 1.45,5.3
2004-12-10 11:00, 1.35,5.3
2004-12-10 12:00, 1.54,5.3
2004-12-10 13:00, 1.74,5.3
2004-12-10 14:00, 1.58,5.3
2004-12-10 15:00, 1.66,5.3
2004-12-10 16:00, 2.08,6.4
2004-12-10 17:00, 1.91,6.4
2004-12-10 18:00, 2.23,6.4
2004-12-10 19:00, 2.32,8.0
2004-12-10 20:00, 2.32,8.0
2004-12-10 21:00, 2.61,8.0
2004-12-10 22:00, 2.54,8.0
2004-12-10 23:00, 2.40,8.0
2004-12-11 00:00, 2.89,8.0
2004-12-11 01:00, 2.72,8.0
2004-12-11 02:00, 2.95,8.0
2004-12-11 03:00, 2.98,8.0
2004-12-11 04:00, 3.44,8.0
2004-12-11 05:00, 3.07,8.0
2004-12-11 06:00, 3.12,8.0
2004-12-11 07:00, 2.64,6.4
2004-12-11 08:00, 2.79,8.0
2004-12-11 09:00, 2.49,8.0
2004-12-11 10:00, 2.52,8.0
2004-12-11 11:00, 2.47,8.0
2004-12-11 12:00, 2.36,8.0
2004-12-11 13:00, 2.23,8.0
2004-12-11 14:00, 2.26,8.0
2004-12-11 15:00, 2.19,8.0
2004-12-11 16:00, 1.96,8.0
2004-12-11 17:00, 2.35,8.0
2004-12-11 18:00, 2.15,10.7
2004-12-11 19:00, 2.31,8.0
2004-12-11 20:00, 1.90,8.0
2004-12-11 21:00, 1.96,8.0
2004-12-11 22:00, 1.87,8.0
2004-12-11 23:00, 1.77,8.0
2004-12-12 00:00, 1.97,8.0
2004-12-12 01:00, 1.63,8.0
2004-12-12 02:00, 1.49,8.0
2004-12-12 03:00, 1.27,8.0
2004-12-12 04:00, 1.31,8.0
2004-12-12 05:00, 1.15,8.0
2004-12-12 06:00, 1.30,8.0
2004-12-12 07:00, 1.08,8.0
2004-12-12 08:00, 1.41,10.7
2004-12-12 09:00, 1.27,8.0
2004-12-12 10:00, 1.49,8.0
2004-12-12 11:00, 1.50,10.7
2004-12-12 12:00, 1.43,10.7
2004-12-12 13:00, 1.26,8.0
2004-12-12 14:00, 1.26,8.0
2004-12-12 15:00, 1.18,10.7
2004-12-12 16:00, 0.65,4.0
2004-12-12 17:00, 0.66,4.0
2004-12-12 18:00, 1.06,8.0
2004-12-12 19:00, 1.21,10.7
2004-12-12 20:00, 0.84,3.6
2004-12-12 21:00, 1.24,10.7
2004-12-12 22:00, 0.65,3.6
2004-12-12 23:00, 0.97,8.0
2004-12-13 00:00, 1.15,10.7
2004-12-13 01:00, 0.62,4.0
2004-12-13 02:00, 0.59,4.0
2004-12-13 03:00, 0.77,4.0
2004-12-13 04:00, 1.01,8.0
2004-12-13 05:00, 0.61,3.6
2004-12-13 06:00, 1.15,10.7
2004-12-13 07:00, 0.68,3.6
2004-12-13 08:00, 1.52,10.7
2004-12-13 09:00, 1.23,10.7
2004-12-13 10:00, 0.77,3.6
2004-12-13 11:00, 0.76,4.0
2004-12-13 12:00, 0.69,4.0
2004-12-13 13:00, 0.63,4.0
2004-12-13 14:00, 0.60,3.6
2004-12-13 15:00, 0.56,2.9
2004-12-13 16:00, 1.01,10.7
2004-12-13 17:00, 0.58,3.2
2004-12-13 18:00, 0.48,2.9
2004-12-13 19:00, 0.44,2.9
2004-12-13 20:00, 0.98,10.7
2004-12-13 21:00, 0.45,3.2
2004-12-13 22:00, 0.58,3.2
2004-12-13 23:00, 0.60,3.2
2004-12-14 00:00, 0.61,3.6
2004-12-14 01:00, 0.63,3.6
2004-12-14 02:00, 0.61,3.2
2004-12-14 03:00, 0.66,3.6
2004-12-14 04:00, 0.80,4.0
2004-12-14 05:00, 0.91,4.0
2004-12-14 06:00, 1.04,4.6
2004-12-14 07:00, 0.90,4.0
2004-12-14 08:00, 0.89,4.0
2004-12-14 09:00, 0.91,4.0
2004-12-14 10:00, 1.03,4.0
2004-12-14 11:00, 0.82,4.0
2004-12-14 12:00, 0.89,4.6
2004-12-14 13:00, 0.67,4.0
2004-12-14 14:00, 0.84,3.6
2004-12-14 15:00, 1.01,3.2
2004-12-14 16:00, 0.92,4.0
2004-12-14 17:00, 1.10,10.7
2004-12-14 18:00, 0.84,4.0
2004-12-14 19:00, 0.82,3.6
2004-12-14 20:00, 0.89,3.6
2004-12-14 21:00, 0.80,3.2
2004-12-14 22:00, 0.88,3.6
2004-12-14 23:00, 0.90,3.6
2004-12-15 00:00, 0.91,3.2
2004-12-15 01:00, 0.98,3.2
2004-12-15 02:00, 0.91,3.6
2004-12-15 03:00, 0.77,3.6
2004-12-15 04:00, 0.69,4.6
2004-12-15 05:00, 0.84,5.3
2004-12-15 06:00, 0.86,5.3
2004-12-15 07:00, 0.80,3.2
2004-12-15 08:00, 0.74,2.9
2004-12-15 09:00, 0.71,2.7
2004-12-15 10:00, 0.62,2.7
2004-12-15 11:00, 0.66,2.9
2004-12-15 12:00, 0.68,2.9
2004-12-15 13:00, 0.69,2.9
2004-12-15 14:00, 0.77,3.2
2004-12-15 15:00, 0.71,3.6
2004-12-15 16:00, 0.70,4.6
2004-12-15 17:00, 0.64,4.6
2004-12-15 18:00, 0.63,4.6
2004-12-15 19:00, 0.61,5.3
2004-12-15 20:00, 0.62,5.3
2004-12-15 21:00, 0.60,4.6
2004-12-15 22:00, 0.59,2.9
2004-12-15 23:00, 0.65,2.7
2004-12-16 00:00, 0.57,2.7
2004-12-16 01:00, 0.64,4.0